Location: Newark
(25.5428°S, 54.5819°W)
Time: 22:56:42
(UTC+00:00)

Envisat - Pass Details

Date: 31 July 2019
Orbit: 764 x 766 km, 98.1° (Epoch: 19 August)

Event Time Altitude Azimuth Distance (km) Brightness Sun altitude
Exits shadow 22:17:00 - 161° (SSE) 3,081 5.8 -14.7°
Reaches altitude 10° 22:18:56 10° 157° (SSE) 2,325 5.2 -15.2°
Maximum altitude 22:23:57 53° 80° (E) 938 3.1 -16.3°
Drops below altitude 10° 22:28:53 10° 3° (N) 2,297 5.6 -17.4°
Sets 22:31:13 0° 358° (N) 3,216 6.4 -17.9°
